カタログに戻る

STARLINK-37946

運用中通信SSO
NORAD 69672·PAYLOAD·🇺🇸 United States

打ち上げ Jun 21, 2026 から Vandenberg Space Force Base

Loading…

次のパス (今後24時間)

TLE

最新Source: CelesTrak SupGP

元期: Sep 15, 2026, 03:59 UTC

1 69672C 26143Z   26258.16645833 -.00046848  00000+0 -14543-2 0  2583
2 69672  97.2831 301.4840 0001112 105.1459  71.5525 15.33462983    12

AllMySatでSTARLINK-37946をリアルタイム追跡

Download on the App Store